Mazatlan Airport, Mexico

3:30 PM MDT on July 25, 2017 (GMT -0600)
Gen Rafael Buelna International

Weather History for MMMZ - July, 2013

Change the Weather History Date:

Tuesday, July 30, 2013

  Actual Average Record
Temperature  
Mean Temperature 82 °F -  
Max Temperature 89 °F 88 °F 93 °F (1996)
Min Temperature 75 °F 74 °F 68 °F (1996)
Cooling Degree Days 17    
Growing Degree Days 32 (Base 50)    
Moisture  
Dew Point 69 °F    
Average Humidity 63    
Maximum Humidity 80    
Minimum Humidity 49    
Precipitation  
Precipitation 0.00 in - - ()
Sea Level Pressure  
Sea Level Pressure 29.94 in    
Wind  
Wind Speed 7 mph ()    
Max Wind Speed 15 mph    
Max Gust Speed -    
Visibility 10.8 miles    
Events      
Averages and records for this station are not official NWS values.
T = Trace of Precipitation, MM = Missing Value Source: Averaged Metar Reports

Daily Weather History Graph

Daily Weather History Graph

Search for Another Location

Airport or City:

Trip Planner

Search our weather history database for the weather conditions in past years. The results will help you decide how hot, cold, wet, or windy it might be!

Date:

Astronomy

Jul. 30, 2013 Rise Set
Actual Time 6:34 AM MDT 7:47 PM MDT
Civil Twilight 6:10 AM MDT 8:11 PM MDT
Nautical Twilight 5:42 AM MDT 8:40 PM MDT
Astronomical Twilight 5:12 AM MDT 9:10 PM MDT
Moon 12:49 AM MDT (7/30) 2:12 PM MDT (7/30)
Length of Visible Light 14h 01m
Length of Day
13h 12m
Last Quarter, 40% of the Moon is Illuminated
Jul 30
Last Quarter
Aug 6
New
Aug 14
First Quarter
Aug 20
Full
Aug 28
Last Quarter

Hourly Weather History & Observations

Time (MDT) Temp. Heat Index Dew Point Humidity Pressure Visibility Wind Dir Wind Speed Gust Speed Precip Events Conditions
12:00 AM 84 °F - 78 °F 77% 29.99 in - West 4.5 mph - -  
12:40 AM 78.8 °F - 68.0 °F 69% 29.96 in 10.0 mi South 6.9 mph - N/A   Overcast
1:41 AM 77.0 °F - 66.2 °F 69% 29.95 in 10.0 mi East 6.9 mph - N/A   Mostly Cloudy
2:41 AM 77.0 °F - 66.2 °F 69% 29.95 in 10.0 mi NNE 8.1 mph - N/A   Mostly Cloudy
3:00 AM 83 °F - 78 °F 80% 29.97 in - North 2.2 mph - -  
3:40 AM 77.0 °F - 68.0 °F 74% 29.94 in 10.0 mi North 8.1 mph - N/A   Mostly Cloudy
4:41 AM 75.2 °F - 66.2 °F 73% 29.94 in 10.0 mi NE 10.4 mph - N/A   Mostly Cloudy
5:43 AM 75.2 °F - 66.2 °F 73% 29.95 in 10.0 mi North 8.1 mph - N/A   Mostly Cloudy
6:51 AM 75.2 °F - 66.2 °F 73% 29.96 in 10.0 mi NW 8.1 mph - N/A   Scattered Clouds
7:49 AM 77.0 °F - 66.2 °F 69% 29.97 in 10.0 mi NE 8.1 mph - N/A   Partly Cloudy
8:43 AM 80.6 °F 83.2 °F 68.0 °F 65% 29.98 in 10.0 mi East 5.8 mph - N/A   Clear
9:00 AM 89 °F - 78 °F 62% 30.00 in - East 2.2 mph - -  
9:46 AM 84.2 °F 88.4 °F 69.8 °F 62% 29.97 in 12.0 mi ENE 5.8 mph - N/A   Scattered Clouds
10:42 AM 86.0 °F 89.4 °F 68.0 °F 55% 29.96 in 12.0 mi SSE 6.9 mph - N/A   Scattered Clouds
11:45 AM 87.8 °F 92.6 °F 69.8 °F 55% 29.96 in 12.0 mi WSW 10.4 mph - N/A   Scattered Clouds
12:40 PM 87.8 °F 92.6 °F 69.8 °F 55% 29.94 in 12.0 mi WSW 15.0 mph - N/A   Partly Cloudy
1:50 PM 87.8 °F 92.6 °F 69.8 °F 55% 29.92 in 12.0 mi SW 13.8 mph - N/A   Partly Cloudy
2:41 PM 87.8 °F 92.6 °F 69.8 °F 55% 29.92 in 12.0 mi SW 13.8 mph - N/A   Scattered Clouds
3:43 PM 89.6 °F 93.4 °F 68.0 °F 49% 29.89 in 12.0 mi SW 11.5 mph - N/A   Partly Cloudy
4:41 PM 87.8 °F 92.6 °F 69.8 °F 55% 29.88 in 12.0 mi SW 12.7 mph - N/A   Partly Cloudy
5:40 PM 87.8 °F 91.4 °F 68.0 °F 52% 29.87 in 12.0 mi WSW 12.7 mph - N/A   Scattered Clouds
6:43 PM 84.2 °F 87.3 °F 68.0 °F 58% 29.88 in 12.0 mi WSW 11.5 mph - N/A   Mostly Cloudy
7:41 PM 82.4 °F 84.6 °F 66.2 °F 58% 29.90 in 10.0 mi WSW 11.5 mph - N/A   Mostly Cloudy
8:41 PM 82.4 °F 84.6 °F 66.2 °F 58% 29.91 in 10.0 mi WSW 8.1 mph - N/A   Mostly Cloudy
9:49 PM 80.6 °F 82.7 °F 66.2 °F 61% 29.93 in 10.0 mi SW 8.1 mph - N/A   Mostly Cloudy
10:50 PM 80.6 °F 83.2 °F 68.0 °F 65% 29.95 in 10.0 mi WSW 5.8 mph - N/A   Overcast
11:49 PM 80.6 °F 83.2 °F 68.0 °F 65% 29.96 in 10.0 mi South 5.8 mph - N/A   Overcast